SCP
0 0 0 0 0 0 0 0 0 0 0 0 0 0 0 0 0 0 0 0 0 0 0 0 0 0 0 0 0 0 0 0 0 0 0 0 0 0 0 0 0 0 -0 -0 -0
0 0 0 0 0 0 0 0 0 0 0 0 0 0 0 0 0 0 0 0 0 0 0 0 0 0 0 0 0 0 0 0 0 0 0 0 0 0 0 0 0 0 0 0 0
0 0 0 0 0 0 0 0 0 0 0 0 0 0 0 0 0 0 0 0 0 0 0 0 0 0 0 0 0 0 0 0 0 0 0 0 0 0 0 0 0 0 0 0 0
0 0 0 0 0 0 0 0 0 0 0 0 0 0 0 0 0 0 0 0 0 0 0 0 0 0 0 0 0 0 0 0 0 0 0 0 0 0 0 0 0 0 0 0 0
0 0 0 0 0 0 0 0 0 0 0 0 0 0 0 0 0 0 0 0 0 0 0 0 0 0 0 0 0 0 0 0 0 0 0 0 0 0 0 0 0 0 0 0 0
0 0 0 0 0 0 0 0 0 0 0 0 0 0 0 0 0 0 0 0 0 0 0 0 0 0 0 0 0 0 0 0 0 0 0 0 0 0 0 0 0 0 0 0 0
0 0 0 0 0 0 0 0 0 0 0 0 0 0 0 0 0 0 0 0 0 0 0 0 0 0 0 0 0 0 0 0 0 0 0 0 -0 -0 0 0 0 0 0 0 0
0 0 0 0 0 0 0 0 0 0 0 0 0 0 0 0 0 0 0 0 0 0 0 0 0 0 0 0 0 0 0 0 0 0 0 0 -0 0 0 0 0 0 0 0 0
0 0 0 0 0 0 0 0 0 0 0 0 0 0 0 0 0 0 0 0 0 0 0 0 0 0 0 0 0 0 0 0 0 0 0 0 0 0 0 0 0 0 0 0 0
-0 0 0 0 0 0 0 0 0 0 0 0 0 0 0 0 0 0 0 0 0 0 0 0 0 0 0 0 0 0 0 0 0 0 0 0 0 0 0 0 0 0 0 0 0
0 0 0 0 0 0 0 0 0 0 0 0 0 0 0 0 0 0 0 0 0 0 0 0 0 0 0 0 0 0 0 0 0 0 0 0 0 0 0 0 0 0 0 0 0
0 0 0 0 0 0 0 0 0 0 0 0 0 0 0 0 0 0 0 0 0 0 0 0 0 0 0 0 0 0 0 0 0 0 0 0 0 0 0 0 0 0 0 0 0
0 0 0 0 0 0 0 0 0 0 0 0 0 0 0 0 0 0 0 0 0 0 0 0 0 0 0 0 0 0 0 0 0 0 0 0 0 0 -0 0 0 0 0 0 0
0 0 0 0 0 0 0 0 0 0 1 0 0 0 0 0 0 0 0 0 0 0 0 0 0 0 0 0 0 0 0 0 0 0 0 0 0 0 0 0 0 0 0 0 0
0 0 0 0 0 0 0 0 0 0 0 0 0 0 0 0 0 0 0 0 0 0 0 0 0 0 0 0 0 0 0 0 0 0 0 0 0 0 0 0 0 0 0 0 0
0 0 0 0 0 0 0 0 0 0 0 0 0 0 0 0 0 0 0 0 0 0 0 0 0 0 0 0 0 0 0 0 0 0 0 0 0 0 0 0 0 0 0 0 0
0 0 0 0 0 0 0 0 0 0 0 0 0 0 0 0 0 0 0 0 0 0 0 0 0 0 0 0 0 0 0 0 0 0 0 0 0 0 0 0 0 0 0 0 0
0 0 0 0 0 0 0 0 0 0 0 0 0 0 0 0 0 0 0 0 0 0 0 0 0 0 0 0 0 0 0 0 0 0 0 0 0 0 0 0 0 0 0 0 0
0 0 0 0 0 0 0 0 0 0 0 0 0 0 0 0 0 0 0 0 0 0 0 0 0 0 0 0 0 0 0 0 0 0 0 0 0 0 0 0 0 0 0 0 0
0 0 0 0 0 0 0 0 0 0 0 0 0 0 0 0 0 0 0 0 0 0 0 0 0 0 0 0 0 0 0 0 0 0 0 0 0 0 0 0 0 0 0 0 0
0 0 0 0 0 0 0 0 0 0 0 0 0 0 0 0 0 0 0 0 0 0 0 0 0 0 0 0 0 0 0 0 0 0 0 0 0 0 0 0 0 0 0 0 0
0 0 0 0 0 -0 0 0 0 0 0 0 0 0 0 0 0 0 0 0 0 0 0 0 0 0 0 0 0 0 0 0 0 0 0 0 0 0 0 0 0 0 0 0 0
0 0 0 0 0 0 0 0 0 0 0 0 0 0 0 0 0 0 0 0 0 0 0 0 0 0 0 0 0 0 0 0 0 0 0 0 0 0 0 0 0 0 0 0 0
0 0 0 0 0 0 0 0 0 0 0 0 0 0 0 0 0 0 0 0 0 0 0 0 0 0 0 0 0 0 0 0 0 0 0 0 0 0 0 0 0 0 0 0 0
0 0 0 0 0 0 0 0 0 0 0 0 0 0 0 0 0 0 0 0 0 0 0 0 0 0 0 0 0 0 0 0 0 0 0 0 0 0 0 0 0 0 0 0 0
0 0 0 0 0 0 0 0 0 0 0 0 0 0 0 0 0 0 0 0 0 0 0 0 0 0 0 0 0 0 0 0 0 0 0 0 0 0 0 0 0 0 0 0 0
0 0 0 0 0 0 0 0 0 0 0 0 0 0 0 0 0 0 0 0 0 0 0 0 0 0 0 0 0 0 0 0 0 0 0 0 0 0 0 0 0 0 0 0 0
Wind_Speed_500mb
50 50 50 40 38 39 37 37 43 46 42 39 36 35 35 36 38 38 33 30 19 17 14 11 12 11 11 6 7 5 5 6 6 8 6 4 6 1 2 4 5 4 2 6 12
47 48 51 50 43 37 38 36 37 40 44 42 36 32 29 31 34 44 41 31 25 20 16 11 8 4 1 2 3 3 6 6 2 1 3 5 4 3 4 2 6 4 6 8 11
53 50 44 52 51 45 36 37 37 37 39 41 40 34 27 23 22 42 49 41 34 28 21 13 6 2 6 3 1 2 8 4 5 5 3 4 4 2 4 7 4 2 3 8 13
53 54 53 46 53 51 46 36 39 37 37 37 38 35 27 21 13 9 20 31 43 38 33 19 11 7 10 11 7 11 6 4 4 4 5 6 4 5 9 1 4 4 6 14 18
46 55 57 56 49 56 52 43 37 37 35 36 36 36 33 30 28 4 5 17 36 49 43 29 20 13 15 11 12 13 10 8 6 8 10 9 14 10 14 14 21 19 19 19 11
38 50 59 57 52 53 58 51 42 37 37 36 36 41 40 35 24 37 7 9 20 42 42 36 19 18 10 10 16 10 12 8 8 13 10 11 19 6 7 9 9 17 17 18 22
42 43 52 58 58 49 53 56 47 42 40 38 39 48 37 42 19 41 48 18 3 33 40 38 23 21 17 9 10 10 12 10 18 13 9 4 24 20 26 27 26 22 19 24 21
69 45 50 57 57 56 47 53 49 44 42 40 40 48 26 41 40 23 40 48 16 22 32 34 28 19 10 11 8 13 10 25 13 18 12 11 40 14 12 16 18 16 17 18 25
77 40 53 52 58 56 46 46 51 46 44 42 45 33 23 31 50 45 23 39 38 19 19 25 28 15 14 16 14 17 23 22 20 13 7 23 30 9 10 10 15 23 31 36 45
70 71 46 47 55 54 47 41 45 44 48 49 39 23 19 28 48 61 31 31 41 27 28 24 19 19 20 24 26 27 30 25 25 12 14 27 34 34 37 39 41 42 42 44 54
59 87 57 56 55 54 50 47 41 33 65 24 36 15 16 38 39 46 51 35 38 36 21 23 20 33 41 42 32 21 28 34 23 9 9 34 39 38 42 37 38 45 50 52 63
57 65 61 67 58 58 57 66 76 34 28 33 34 47 18 44 18 40 59 33 28 31 35 12 33 28 26 32 37 34 32 31 16 8 10 32 47 36 41 46 48 51 51 60 62
53 58 61 54 71 58 69 71 66 34 13 18 44 58 44 45 24 50 64 42 27 33 41 38 10 37 18 23 39 40 41 33 31 9 16 24 51 38 29 36 39 39 50 51 52
58 55 59 50 61 68 75 71 57 45 9 15 23 30 39 30 10 34 73 38 17 37 28 29 43 17 39 33 28 35 23 21 22 9 18 2 22 28 29 32 29 42 42 42 33
68 67 56 58 49 60 74 79 60 39 21 33 22 27 52 46 37 21 61 37 26 23 25 18 27 40 36 42 35 24 14 18 13 15 13 33 17 5 18 14 30 40 28 21 19
72 70 58 64 63 38 52 80 61 14 24 20 26 26 35 31 16 30 37 28 17 10 11 19 1 32 29 15 31 17 14 11 14 17 26 38 30 27 26 21 8 8 8 8 5
72 69 73 60 74 57 68 87 20 19 20 18 23 29 48 22 20 27 32 32 22 19 27 20 22 9 12 26 15 26 22 8 12 14 21 4 25 35 7 13 21 24 7 10 14
69 63 77 71 68 78 54 35 33 23 18 16 27 42 42 36 19 29 39 34 38 24 22 28 18 37 26 30 20 37 31 13 17 21 18 6 22 16 9 3 7 1 17 16 15
61 58 70 77 77 73 41 37 32 30 26 34 36 36 28 28 22 27 39 41 43 38 20 24 24 3 14 15 31 21 32 31 13 5 3 14 20 17 21 10 12 21 23 22 19
60 57 66 70 72 67 18 25 21 15 32 41 25 25 27 36 22 32 28 37 34 46 26 13 8 10 25 12 22 17 22 9 11 15 14 23 30 26 14 15 17 25 33 31 27
53 25 40 72 64 30 14 13 8 16 43 30 27 18 31 24 30 29 33 14 49 45 47 17 8 11 14 35 40 22 20 15 9 14 15 19 22 15 26 19 26 33 32 33 31
39 10 29 71 19 6 20 9 7 22 25 10 18 16 35 43 35 36 43 39 65 50 52 31 13 19 27 3 31 41 40 41 17 18 13 21 34 14 14 15 25 29 35 34 33
21 28 29 66 20 11 11 7 8 11 10 10 10 3 15 33 26 32 36 31 20 41 34 30 16 10 10 11 11 24 38 37 34 1 30 19 18 9 13 16 23 31 38 40 38
9 8 13 38 24 10 25 14 15 21 13 17 11 8 19 21 9 37 35 14 30 48 34 46 24 33 32 25 20 30 35 39 36 18 37 32 47 38 24 25 30 37 44 45 43
12 3 9 9 10 12 7 10 28 11 11 24 7 9 11 11 27 11 39 14 18 38 39 24 17 37 40 35 20 37 44 42 45 51 33 43 41 53 40 33 49 51 50 50 45
8 8 22 14 21 18 9 10 18 12 18 14 13 33 24 16 15 23 23 27 22 22 36 23 17 25 36 35 31 25 27 41 50 50 46 52 49 47 46 37 42 55 62 61 54
36 27 14 8 8 0 4 7 11 20 2 13 15 16 17 31 28 22 9 8 10 12 32 23 20 14 31 35 29 28 45 47 38 51 51 51 62 41 33 35 49 60 74 73 62
Wind_Direction_500mb
239 241 240 240 236 233 230 231 232 233 233 236 240 245 249 254 262 264 257 252 248 253 272 291 300 314 9 40 27 13 236 188 167 187 122 139 196 292 243 158 178 200 324 319 329
238 235 236 237 238 235 228 228 228 231 232 232 234 239 243 251 260 261 248 249 246 253 262 271 299 322 93 49 7 274 242 190 102 206 146 140 195 159 256 221 177 210 280 329 345
241 239 236 235 233 237 234 226 227 227 229 228 229 232 235 243 269 263 257 245 239 234 241 247 252 164 167 165 196 180 247 148 176 193 201 152 169 141 227 238 285 348 100 344 347
239 237 237 237 231 230 235 229 226 223 225 222 222 221 226 221 231 254 252 237 229 228 228 224 212 196 187 193 175 211 219 199 159 207 215 197 174 191 224 263 334 244 275 326 327
244 235 232 234 233 227 228 226 228 221 221 219 213 208 207 209 225 216 359 222 209 211 215 208 196 192 214 184 172 212 186 209 225 251 262 261 250 270 236 248 272 272 279 299 312
249 238 231 229 230 227 225 224 226 226 217 215 209 200 207 221 228 220 217 78 200 203 201 197 206 198 185 196 213 171 190 219 258 251 257 253 266 248 215 206 258 270 268 266 293
245 246 234 226 224 226 223 221 221 224 216 211 204 202 215 216 234 224 227 242 218 197 199 200 189 184 168 172 181 166 213 229 231 236 250 215 255 241 250 253 264 260 261 273 271
235 242 236 227 225 220 220 219 215 219 218 207 201 204 223 223 216 217 224 230 222 191 199 198 190 186 173 139 136 207 222 237 211 222 235 204 261 242 255 223 248 261 263 267 274
235 242 228 230 222 220 216 215 208 213 218 197 198 194 223 218 216 213 214 216 215 187 177 188 195 198 177 199 213 209 239 227 244 204 215 207 266 245 188 225 265 277 281 285 289
229 237 230 228 222 217 208 207 199 203 212 192 197 183 212 204 210 207 209 197 193 188 177 175 190 197 206 201 215 224 227 235 235 188 222 242 253 263 266 274 276 278 280 282 282
225 229 233 226 220 212 201 188 181 197 199 187 182 172 166 194 196 200 199 189 188 191 192 192 197 207 205 212 226 248 238 241 244 231 254 257 265 269 276 271 273 277 278 278 274
224 219 232 222 211 208 202 194 192 202 187 206 194 189 155 174 159 196 194 182 191 200 197 188 221 209 218 223 223 228 237 238 259 222 246 275 272 269 271 266 263 268 273 269 277
222 214 225 225 211 212 209 210 196 178 184 196 188 180 167 171 181 190 188 195 205 198 198 209 204 204 200 209 219 227 237 242 248 263 259 291 285 269 251 253 258 254 254 268 278
221 216 216 218 229 218 209 207 195 191 221 171 182 203 180 164 195 187 190 181 195 211 199 227 217 198 210 221 207 225 221 246 243 252 257 348 285 294 295 263 247 260 257 268 291
219 221 215 211 211 217 210 201 179 184 221 167 172 180 175 178 139 184 187 191 194 172 190 200 198 204 209 220 209 233 165 202 194 229 300 248 274 291 133 255 274 260 264 275 273
217 220 213 210 219 206 204 195 190 198 209 165 143 166 161 190 159 143 177 194 191 181 211 229 353 207 203 180 198 192 178 204 221 247 254 252 237 267 250 238 242 267 175 179 210
218 217 216 212 214 192 184 182 210 216 151 153 166 161 176 167 152 165 176 185 182 184 214 195 212 161 174 189 176 179 161 201 201 206 243 297 214 252 157 235 303 300 215 166 163
217 221 218 220 219 214 204 188 227 174 159 152 164 165 179 150 174 180 176 189 207 206 200 206 210 204 186 205 192 196 193 196 218 222 231 143 232 243 181 338 340 295 147 152 141
217 212 215 215 218 217 222 209 195 159 149 152 159 167 182 172 156 168 188 195 190 199 189 200 224 233 197 187 190 186 217 230 274 106 265 227 241 251 218 218 152 148 152 150 145
199 201 212 210 218 216 229 200 177 157 147 152 160 172 177 176 168 170 183 205 194 199 213 189 209 195 188 199 219 201 162 164 200 211 222 238 256 251 182 187 169 172 172 168 159
191 201 210 204 204 196 214 197 153 156 156 163 156 158 180 178 184 185 179 183 200 194 196 168 214 167 154 206 200 202 210 219 254 225 241 258 252 259 237 195 191 190 185 174 164
182 200 212 197 197 153 227 213 148 136 155 144 149 145 175 178 194 194 208 206 200 188 195 202 216 215 208 276 235 219 215 206 213 203 239 263 265 157 181 207 202 191 180 173 167
177 207 180 187 203 229 164 149 131 110 121 121 123 150 175 173 183 189 205 220 194 190 192 177 213 197 214 240 215 224 220 219 218 6 218 217 248 160 193 194 195 188 184 178 171
209 158 190 166 193 182 145 129 106 105 89 83 97 111 153 173 160 194 210 189 192 196 189 173 217 219 227 235 192 214 212 214 216 227 238 231 253 247 216 209 200 202 193 186 181
215 95 65 145 112 113 68 108 112 102 101 129 126 111 127 145 186 184 208 179 193 195 189 187 225 222 238 247 219 219 215 213 213 226 225 243 238 252 246 214 210 205 193 190 189
84 88 64 86 112 108 14 187 124 126 147 179 146 177 167 157 188 197 199 196 194 193 203 198 231 223 239 234 228 229 224 222 223 228 234 243 251 245 259 222 212 198 194 193 192
99 98 101 36 60 336 110 146 160 131 30 128 168 147 189 218 193 186 149 174 131 183 205 200 217 192 235 222 222 233 223 219 219 223 227 231 237 247 239 209 206 203 197 193 191
Wind_Speed_850mb
50 50 50 40 38 39 37 37 43 46 42 39 36 35 35 36 38 38 33 30 19 17 14 11 12 11 11 6 7 5 5 6 6 8 6 4 6 1 2 4 5 4 2 6 12
47 48 51 50 43 37 38 36 37 40 44 42 36 32 29 31 34 44 41 31 25 20 16 11 8 4 1 2 3 3 6 6 2 1 3 5 4 3 4 2 6 4 6 8 11
53 50 44 52 51 45 36 37 37 37 39 41 40 34 27 23 22 42 49 41 34 28 21 13 6 2 6 3 1 2 8 4 5 5 3 4 4 2 4 7 4 2 3 8 13
53 54 53 46 53 51 46 36 39 37 37 37 38 35 27 21 13 9 20 31 43 38 33 19 11 7 10 11 7 11 6 4 4 4 5 6 4 5 9 1 4 4 6 14 18
46 55 57 56 49 56 52 43 37 37 35 36 36 36 33 30 28 4 5 17 36 49 43 29 20 13 15 11 12 13 10 8 6 8 10 9 14 10 14 14 21 19 19 19 11
38 50 59 57 52 53 58 51 42 37 37 36 36 41 40 35 24 37 7 9 20 42 42 36 19 18 10 10 16 10 12 8 8 13 10 11 19 6 7 9 9 17 17 18 22
42 43 52 58 58 49 53 56 47 42 40 38 39 48 37 42 19 41 48 18 3 33 40 38 23 21 17 9 10 10 12 10 18 13 9 4 24 20 26 27 26 22 19 24 21
69 45 50 57 57 56 47 53 49 44 42 40 40 48 26 41 40 23 40 48 16 22 32 34 28 19 10 11 8 13 10 25 13 18 12 11 40 14 12 16 18 16 17 18 25
77 40 53 52 58 56 46 46 51 46 44 42 45 33 23 31 50 45 23 39 38 19 19 25 28 15 14 16 14 17 23 22 20 13 7 23 30 9 10 10 15 23 31 36 45
70 71 46 47 55 54 47 41 45 44 48 49 39 23 19 28 48 61 31 31 41 27 28 24 19 19 20 24 26 27 30 25 25 12 14 27 34 34 37 39 41 42 42 44 54
59 87 57 56 55 54 50 47 41 33 65 24 36 15 16 38 39 46 51 35 38 36 21 23 20 33 41 42 32 21 28 34 23 9 9 34 39 38 42 37 38 45 50 52 63
57 65 61 67 58 58 57 66 76 34 28 33 34 47 18 44 18 40 59 33 28 31 35 12 33 28 26 32 37 34 32 31 16 8 10 32 47 36 41 46 48 51 51 60 62
53 58 61 54 71 58 69 71 66 34 13 18 44 58 44 45 24 50 64 42 27 33 41 38 10 37 18 23 39 40 41 33 31 9 16 24 51 38 29 36 39 39 50 51 52
58 55 59 50 61 68 75 71 57 45 9 15 23 30 39 30 10 34 73 38 17 37 28 29 43 17 39 33 28 35 23 21 22 9 18 2 22 28 29 32 29 42 42 42 33
68 67 56 58 49 60 74 79 60 39 21 33 22 27 52 46 37 21 61 37 26 23 25 18 27 40 36 42 35 24 14 18 13 15 13 33 17 5 18 14 30 40 28 21 19
72 70 58 64 63 38 52 80 61 14 24 20 26 26 35 31 16 30 37 28 17 10 11 19 1 32 29 15 31 17 14 11 14 17 26 38 30 27 26 21 8 8 8 8 5
72 69 73 60 74 57 68 87 20 19 20 18 23 29 48 22 20 27 32 32 22 19 27 20 22 9 12 26 15 26 22 8 12 14 21 4 25 35 7 13 21 24 7 10 14
69 63 77 71 68 78 54 35 33 23 18 16 27 42 42 36 19 29 39 34 38 24 22 28 18 37 26 30 20 37 31 13 17 21 18 6 22 16 9 3 7 1 17 16 15
61 58 70 77 77 73 41 37 32 30 26 34 36 36 28 28 22 27 39 41 43 38 20 24 24 3 14 15 31 21 32 31 13 5 3 14 20 17 21 10 12 21 23 22 19
60 57 66 70 72 67 18 25 21 15 32 41 25 25 27 36 22 32 28 37 34 46 26 13 8 10 25 12 22 17 22 9 11 15 14 23 30 26 14 15 17 25 33 31 27
53 25 40 72 64 30 14 13 8 16 43 30 27 18 31 24 30 29 33 14 49 45 47 17 8 11 14 35 40 22 20 15 9 14 15 19 22 15 26 19 26 33 32 33 31
39 10 29 71 19 6 20 9 7 22 25 10 18 16 35 43 35 36 43 39 65 50 52 31 13 19 27 3 31 41 40 41 17 18 13 21 34 14 14 15 25 29 35 34 33
21 28 29 66 20 11 11 7 8 11 10 10 10 3 15 33 26 32 36 31 20 41 34 30 16 10 10 11 11 24 38 37 34 1 30 19 18 9 13 16 23 31 38 40 38
9 8 13 38 24 10 25 14 15 21 13 17 11 8 19 21 9 37 35 14 30 48 34 46 24 33 32 25 20 30 35 39 36 18 37 32 47 38 24 25 30 37 44 45 43
12 3 9 9 10 12 7 10 28 11 11 24 7 9 11 11 27 11 39 14 18 38 39 24 17 37 40 35 20 37 44 42 45 51 33 43 41 53 40 33 49 51 50 50 45
8 8 22 14 21 18 9 10 18 12 18 14 13 33 24 16 15 23 23 27 22 22 36 23 17 25 36 35 31 25 27 41 50 50 46 52 49 47 46 37 42 55 62 61 54
36 27 14 8 8 0 4 7 11 20 2 13 15 16 17 31 28 22 9 8 10 12 32 23 20 14 31 35 29 28 45 47 38 51 51 51 62 41 33 35 49 60 74 73 62
Wind_Direction_850mb
239 241 240 240 236 233 230 231 232 233 233 236 240 245 249 254 262 264 257 252 248 253 272 291 300 314 9 40 27 13 236 188 167 187 122 139 196 292 243 158 178 200 324 319 329
238 235 236 237 238 235 228 228 228 231 232 232 234 239 243 251 260 261 248 249 246 253 262 271 299 322 93 49 7 274 242 190 102 206 146 140 195 159 256 221 177 210 280 329 345
241 239 236 235 233 237 234 226 227 227 229 228 229 232 235 243 269 263 257 245 239 234 241 247 252 164 167 165 196 180 247 148 176 193 201 152 169 141 227 238 285 348 100 344 347
239 237 237 237 231 230 235 229 226 223 225 222 222 221 226 221 231 254 252 237 229 228 228 224 212 196 187 193 175 211 219 199 159 207 215 197 174 191 224 263 334 244 275 326 327
244 235 232 234 233 227 228 226 228 221 221 219 213 208 207 209 225 216 359 222 209 211 215 208 196 192 214 184 172 212 186 209 225 251 262 261 250 270 236 248 272 272 279 299 312
249 238 231 229 230 227 225 224 226 226 217 215 209 200 207 221 228 220 217 78 200 203 201 197 206 198 185 196 213 171 190 219 258 251 257 253 266 248 215 206 258 270 268 266 293
245 246 234 226 224 226 223 221 221 224 216 211 204 202 215 216 234 224 227 242 218 197 199 200 189 184 168 172 181 166 213 229 231 236 250 215 255 241 250 253 264 260 261 273 271
235 242 236 227 225 220 220 219 215 219 218 207 201 204 223 223 216 217 224 230 222 191 199 198 190 186 173 139 136 207 222 237 211 222 235 204 261 242 255 223 248 261 263 267 274
235 242 228 230 222 220 216 215 208 213 218 197 198 194 223 218 216 213 214 216 215 187 177 188 195 198 177 199 213 209 239 227 244 204 215 207 266 245 188 225 265 277 281 285 289
229 237 230 228 222 217 208 207 199 203 212 192 197 183 212 204 210 207 209 197 193 188 177 175 190 197 206 201 215 224 227 235 235 188 222 242 253 263 266 274 276 278 280 282 282
225 229 233 226 220 212 201 188 181 197 199 187 182 172 166 194 196 200 199 189 188 191 192 192 197 207 205 212 226 248 238 241 244 231 254 257 265 269 276 271 273 277 278 278 274
224 219 232 222 211 208 202 194 192 202 187 206 194 189 155 174 159 196 194 182 191 200 197 188 221 209 218 223 223 228 237 238 259 222 246 275 272 269 271 266 263 268 273 269 277
222 214 225 225 211 212 209 210 196 178 184 196 188 180 167 171 181 190 188 195 205 198 198 209 204 204 200 209 219 227 237 242 248 263 259 291 285 269 251 253 258 254 254 268 278
221 216 216 218 229 218 209 207 195 191 221 171 182 203 180 164 195 187 190 181 195 211 199 227 217 198 210 221 207 225 221 246 243 252 257 348 285 294 295 263 247 260 257 268 291
219 221 215 211 211 217 210 201 179 184 221 167 172 180 175 178 139 184 187 191 194 172 190 200 198 204 209 220 209 233 165 202 194 229 300 248 274 291 133 255 274 260 264 275 273
217 220 213 210 219 206 204 195 190 198 209 165 143 166 161 190 159 143 177 194 191 181 211 229 353 207 203 180 198 192 178 204 221 247 254 252 237 267 250 238 242 267 175 179 210
218 217 216 212 214 192 184 182 210 216 151 153 166 161 176 167 152 165 176 185 182 184 214 195 212 161 174 189 176 179 161 201 201 206 243 297 214 252 157 235 303 300 215 166 163
217 221 218 220 219 214 204 188 227 174 159 152 164 165 179 150 174 180 176 189 207 206 200 206 210 204 186 205 192 196 193 196 218 222 231 143 232 243 181 338 340 295 147 152 141
217 212 215 215 218 217 222 209 195 159 149 152 159 167 182 172 156 168 188 195 190 199 189 200 224 233 197 187 190 186 217 230 274 106 265 227 241 251 218 218 152 148 152 150 145
199 201 212 210 218 216 229 200 177 157 147 152 160 172 177 176 168 170 183 205 194 199 213 189 209 195 188 199 219 201 162 164 200 211 222 238 256 251 182 187 169 172 172 168 159
191 201 210 204 204 196 214 197 153 156 156 163 156 158 180 178 184 185 179 183 200 194 196 168 214 167 154 206 200 202 210 219 254 225 241 258 252 259 237 195 191 190 185 174 164
182 200 212 197 197 153 227 213 148 136 155 144 149 145 175 178 194 194 208 206 200 188 195 202 216 215 208 276 235 219 215 206 213 203 239 263 265 157 181 207 202 191 180 173 167
177 207 180 187 203 229 164 149 131 110 121 121 123 150 175 173 183 189 205 220 194 190 192 177 213 197 214 240 215 224 220 219 218 6 218 217 248 160 193 194 195 188 184 178 171
209 158 190 166 193 182 145 129 106 105 89 83 97 111 153 173 160 194 210 189 192 196 189 173 217 219 227 235 192 214 212 214 216 227 238 231 253 247 216 209 200 202 193 186 181
215 95 65 145 112 113 68 108 112 102 101 129 126 111 127 145 186 184 208 179 193 195 189 187 225 222 238 247 219 219 215 213 213 226 225 243 238 252 246 214 210 205 193 190 189
84 88 64 86 112 108 14 187 124 126 147 179 146 177 167 157 188 197 199 196 194 193 203 198 231 223 239 234 228 229 224 222 223 228 234 243 251 245 259 222 212 198 194 193 192
99 98 101 36 60 336 110 146 160 131 30 128 168 147 189 218 193 186 149 174 131 183 205 200 217 192 235 222 222 233 223 219 219 223 227 231 237 247 239 209 206 203 197 193 191